[[{"header":{"parameterUnit":"m.s-1","parameterCategory":1,"la1":30.2991,"la2":30.254,"lo1":-89.0895,"lo2":-89.0444,"dy":0.0017,"dx":0.0017,"nx":28,"ny":28,"refTime":"2025-05-24T03:00:00:Z","depth":0,"parameterNumber":2,"parameterNumberName":"U-component_of_WINDS"},"data":[0,0,0,0,0,0,0,0,0,0,0,0,0,0,0,0,0,0,0,0,0,0,0,0,0,0,0,0,0,0,0,0,0,0,0,0,0,0,0,0,0,0,0,0,0,0,0,0,0,0,0,0,0,0,0,0,0,0,0.8286,0.8286,0,0.8356,0.8357,0.8358,0.839,0.839,0.839,0.839,0.8459,0.8461,0.8463,0,0,0,0,0,0,0,0,0,0,0,0,0,0.8175,0.8177,0.8286,0.8286,0.8287,0.8356,0.8357,0.8358,0.839,0.839,0.839,0.839,0.8459,0.8461,0.8463,0,0,0,0,0,0,0,0,0,0,0,0,0,0.8232,0.8177,0.8285,0.8312,0.8315,0.8356,0.8357,0.8358,0.839,0.839,0.839,0.839,0.8458,0.8461,0.8463,0.8483,0,0,0.8472,0.8473,0,0,0,0,0,0,0,0,0.8229,0.8236,0.8307,0.831,0.8313,0.8364,0.8344,0.84,0.839,0.8361,0.839,0.839,0.8427,0.8433,0.8446,0.8486,0.8489,0.8472,0.8474,0.8475,0.8476,0,0,0,0,0,0,0,0.8225,0.8233,0.8313,0.8308,0.8312,0.8319,0.8327,0.8354,0.8394,0.8364,0.8366,0.8374,0.8429,0.8443,0.8448,0.849,0.8472,0.8475,0.8477,0.8478,0.855,0.855,0,0,0,0,0,0,0.8217,0.823,0.8311,0.8316,0.827,0.8321,0.833,0.8348,0.8394,0.8401,0.8374,0.8376,0.8438,0.8445,0.8451,0.8477,0.8475,0.8478,0.848,0.855,0.855,0.855,0,0,0,0,0,0,0.8214,0.8224,0.8308,0.8273,0.8285,0.8323,0.8343,0.8349,0.8364,0.8402,0.8409,0.8382,0.8439,0.8447,0.8475,0.848,0.8479,0.8482,0.8549,0.855,0.855,0.8529,0,0,0,0,0,0,0.8211,0.8223,0.8231,0.8273,0.8286,0.8332,0.8343,0.8351,0.8369,0.8371,0.8411,0.8417,0.8439,0.847,0.8478,0.8484,0.8484,0.8549,0.8549,0.855,0.8529,0.8529,0.8528,0,0,0,0,0,0.8207,0.8222,0.8232,0.8241,0.8298,0.8333,0.834,0.8366,0.8369,0.8378,0.8402,0.8416,0.8478,0.8473,0.8482,0.8488,0.8549,0.8549,0.855,0.853,0.8529,0.8528,0,0,0,0,0,0,0.8178,0.8228,0.8239,0.8269,0.8296,0.8338,0.835,0.8364,0.8391,0.8391,0.8422,0.843,0.8456,0.8475,0.8469,0.851,0.8514,0.8517,0.8496,0.8496,0.8495,0.849,0.8487,0,0,0,0,0,0.8176,0.8201,0.8242,0.8264,0.8277,0.8311,0.8327,0.8345,0.8374,0.8386,0.8412,0.8439,0.8465,0.8481,0.8507,0.8532,0.8541,0.8541,0.854,0.8539,0.8541,0.8555,0.8556,0.8551,0.8551,0.8551,0,0,0.817,0.82,0.8214,0.8259,0.8283,0.8307,0.8321,0.8345,0.8363,0.8389,0.8418,0.8438,0.847,0.8497,0.851,0.8514,0.8544,0.854,0.8539,0.8541,0.8556,0.8556,0.8556,0.8552,0.8552,0.8552,0,0,0.8172,0.8198,0.8219,0.8242,0.8278,0.8301,0.8305,0.8345,0.836,0.8389,0.8409,0.843,0.8474,0.8496,0.8513,0.8524,0.8537,0.8531,0.8527,0.8541,0.8541,0.8541,0.8545,0.8546,0.8532,0.8532,0.8532,0,0.8161,0.8199,0.8227,0.8252,0.8271,0.8296,0.8317,0.8338,0.838,0.8392,0.8395,0.8451,0.8474,0.8507,0.8509,0.8522,0.8528,0.8527,0.8539,0.854,0.854,0.8544,0.8546,0.8531,0.8532,0.8532,0.8532,0,0.8183,0.8209,0.8221,0.8263,0.8283,0.8305,0.8336,0.8353,0.8369,0.839,0.8419,0.8449,0.8481,0.8489,0.8505,0.8524,0.8525,0.8533,0.8539,0.8539,0.8544,0.8545,0.853,0.853,0.8531,0.8531,0,0,0.8169,0.8226,0.823,0.8249,0.8291,0.8311,0.8334,0.8366,0.838,0.8408,0.8428,0.8464,0.8472,0.8491,0.8509,0.8521,0.8527,0.8528,0.8529,0.8527,0.855,0.8544,0.8545,0.8536,0.8537,0.8537,0.8548,0,0.8177,0.8222,0.8248,0.8281,0.8305,0.8329,0.8349,0.8376,0.8396,0.8419,0.8441,0.8467,0.8475,0.8487,0.85,0.8524,0.8533,0.8523,0.8555,0.8555,0.8546,0.8548,0.8541,0.855,0.8549,0.855,0.855,0,0.8193,0.8222,0.8257,0.8296,0.8307,0.8325,0.8357,0.8378,0.8409,0.8423,0.8444,0.8462,0.8487,0.849,0.8524,0.8517,0.8531,0.8545,0.8546,0.855,0.8553,0.8552,0.8553,0.8555,0.8553,0.8553,0.8552,0,0.818,0.8227,0.8255,0.827,0.8316,0.8328,0.8347,0.8378,0.8396,0.8423,0.8435,0.8464,0.848,0.8501,0.8526,0.8527,0.8558,0.8563,0.857,0.8569,0.8575,0.8575,0.8579,0.8584,0.8584,0.8584,0.8584,0,0.8187,0.8207,0.825,0.8267,0.829,0.832,0.8342,0.8363,0.839,0.8411,0.8433,0.8451,0.8483,0.8506,0.8525,0.855,0.8557,0.8569,0.8574,0.8567,0.8565,0.8577,0.8577,0.8584,0.8584,0.8584,0.8584,0,0.8176,0.8205,0.8237,0.8278,0.8289,0.8304,0.8339,0.8356,0.8377,0.8403,0.8411,0.8445,0.8472,0.8499,0.8536,0.8549,0.8573,0.858,0.8564,0.8566,0.8571,0.8571,0.8584,0.8587,0.8589,0.8589,0.8589,0,0.8179,0.8196,0.8239,0.8255,0.8274,0.8299,0.8318,0.8347,0.8365,0.8401,0.8413,0.8443,0.8468,0.851,0.8537,0.8565,0.8573,0.8575,0.8577,0.857,0.8573,0.8572,0.8574,0.8575,0.8574,0.8574,0.8574,0,0.818,0.8194,0.822,0.8252,0.8274,0.83,0.8326,0.8338,0.8371,0.839,0.8419,0.8439,0.8477,0.8505,0.8536,0.8555,0.857,0.8573,0.8576,0.857,0.856,0.8566,0.8562,0.8573,0.8573,0.8573,0.8573,0.8573,0.8177,0.8193,0.8226,0.8255,0.8278,0.8302,0.832,0.8344,0.8369,0.8403,0.8418,0.8447,0.8477,0.852,0.8539,0.8561,0.8565,0.857,0.8571,0.8571,0.857,0.8556,0.8567,0.8567,0.8567,0.8567,0.8567,0,0.818,0.8202,0.8228,0.8265,0.8287,0.83,0.833,0.8348,0.8374,0.84,0.8425,0.8458,0.8486,0.8515,0.8544,0.8557,0.8564,0.8563,0.8563,0.8567,0.8565,0.8559,0.8557,0.8557,0.8557,0.8557,0.8557,0.8557,0.8184,0.8212,0.8229,0.8269,0.8291,0.832,0.8336,0.8358,0.838,0.8416,0.844,0.8459,0.8487,0.8518,0.8544,0.8552,0.8562,0.8559,0.8569,0.8566,0.8567,0.8568,0.8563,0.8561,0.8561,0.8569,0.8569,0.8569]},{"header":{"parameterUnit":"m.s-1","parameterCategory":1,"la1":30.2991,"la2":30.254,"lo1":-89.0895,"lo2":-89.0444,"dy":0.0017,"dx":0.0017,"nx":28,"ny":28,"refTime":"2025-05-24T03:00:00:Z","depth":0,"parameterNumber":3,"parameterNumberName":"V-component_of_WINDS"},"data":[0,0,0,0,0,0,0,0,0,0,0,0,0,0,0,0,0,0,0,0,0,0,0,0,0,0,0,0,0,0,0,0,0,0,0,0,0,0,0,0,0,0,0,0,0,0,0,0,0,0,0,0,0,0,0,0,0,0,4.1729,4.1729,0,4.1728,4.1728,4.1728,4.1701,4.1701,4.17,4.1699,4.1695,4.1695,4.1696,0,0,0,0,0,0,0,0,0,0,0,0,0,4.1708,4.1708,4.1729,4.1729,4.1729,4.1728,4.1728,4.1728,4.1701,4.1701,4.17,4.1699,4.1694,4.1695,4.1696,0,0,0,0,0,0,0,0,0,0,0,0,0,4.1713,4.1708,4.1729,4.1716,4.1715,4.1728,4.1728,4.1728,4.1702,4.1701,4.17,4.1699,4.1694,4.1695,4.1696,4.1721,0,0,4.1698,4.1698,0,0,0,0,0,0,0,0,4.1712,4.1714,4.1718,4.1717,4.1716,4.1714,4.1719,4.1725,4.1702,4.1707,4.1699,4.1698,4.1702,4.1702,4.1704,4.172,4.172,4.1698,4.1699,4.1699,4.1699,0,0,0,0,0,0,0,4.1712,4.1713,4.1729,4.1718,4.1717,4.171,4.1709,4.172,4.171,4.1706,4.1704,4.1704,4.1701,4.1703,4.1703,4.172,4.1698,4.1699,4.1699,4.17,4.1759,4.176,0,0,0,0,0,0,4.1714,4.1713,4.1729,4.1729,4.1712,4.1711,4.171,4.1715,4.1709,4.1708,4.1705,4.1703,4.1702,4.1702,4.1703,4.1732,4.1699,4.17,4.17,4.1758,4.1759,4.176,0,0,0,0,0,0,4.1714,4.1716,4.1729,4.1721,4.1722,4.1712,4.1718,4.1716,4.1718,4.1709,4.1707,4.1709,4.1701,4.1702,4.1717,4.1732,4.17,4.1701,4.1756,4.1758,4.176,4.1791,0,0,0,0,0,0,4.1713,4.1716,4.1725,4.1721,4.1722,4.1743,4.1719,4.1717,4.172,4.1717,4.1712,4.171,4.1701,4.1716,4.1718,4.1732,4.1701,4.1755,4.1757,4.1759,4.1789,4.1793,4.1798,0,0,0,0,0,4.1712,4.1733,4.1726,4.1728,4.1734,4.1744,4.1745,4.1734,4.1721,4.173,4.1725,4.1711,4.173,4.1718,4.1719,4.1734,4.1754,4.1756,4.1759,4.1786,4.1793,4.1798,0,0,0,0,0,0,4.1737,4.1732,4.1724,4.1744,4.1745,4.174,4.1751,4.174,4.1744,4.1741,4.1727,4.1726,4.1743,4.174,4.1727,4.1759,4.174,4.1743,4.176,4.1766,4.177,4.177,4.1702,0,0,0,0,0,4.1745,4.1755,4.1749,4.1767,4.1769,4.176,4.1764,4.1756,4.1756,4.1756,4.1751,4.1751,4.1757,4.1761,4.1767,4.1789,4.1787,4.18,4.1805,4.1808,4.1811,4.1823,4.1829,4.1769,4.1769,4.1768,0,0,4.1761,4.176,4.1766,4.1772,4.1772,4.1782,4.176,4.1771,4.1778,4.1757,4.1771,4.1768,4.1767,4.1786,4.1794,4.1784,4.1828,4.1812,4.1815,4.1815,4.1826,4.1832,4.1837,4.177,4.177,4.177,0,0,4.1795,4.1795,4.1811,4.1812,4.1813,4.1807,4.1811,4.1809,4.1806,4.1821,4.1806,4.1814,4.1824,4.1825,4.1826,4.1864,4.1851,4.1866,4.189,4.1902,4.1907,4.1911,4.1924,4.1929,4.1869,4.1869,4.1869,0,4.1814,4.1829,4.182,4.1832,4.1836,4.182,4.1835,4.1836,4.1838,4.1841,4.183,4.1845,4.1843,4.1862,4.1872,4.1874,4.1878,4.1866,4.1907,4.1911,4.1915,4.1928,4.1933,4.1871,4.187,4.187,4.187,0,4.1853,4.1864,4.1877,4.1881,4.1886,4.19,4.1893,4.1899,4.1891,4.1887,4.1903,4.19,4.1905,4.191,4.1901,4.1928,4.1922,4.191,4.189,4.1922,4.1934,4.1939,4.1873,4.1873,4.1872,4.1872,0,0,4.19,4.1902,4.1906,4.1909,4.191,4.1918,4.1932,4.1939,4.1944,4.1947,4.1958,4.1969,4.1958,4.196,4.1952,4.1963,4.1994,4.1949,4.1949,4.1957,4.2024,4.2033,4.2039,4.1986,4.1987,4.1988,4.2024,0,4.1933,4.1958,4.1951,4.1975,4.1986,4.1972,4.1984,4.1986,4.1983,4.1991,4.1987,4.1996,4.198,4.1982,4.1992,4.1988,4.2007,4.1985,4.1995,4.1996,4.1996,4.2045,4.2054,4.2089,4.2029,4.2029,4.203,0,4.1974,4.1981,4.2007,4.2009,4.2013,4.2024,4.203,4.2038,4.2041,4.2038,4.2042,4.2032,4.2046,4.2027,4.2046,4.2031,4.2035,4.2034,4.2035,4.2035,4.2014,4.2046,4.2099,4.2105,4.2037,4.2036,4.2036,0,4.2006,4.2021,4.204,4.2042,4.2044,4.2053,4.2054,4.2056,4.2061,4.2066,4.207,4.2076,4.208,4.2085,4.2077,4.2064,4.2097,4.2078,4.2095,4.2095,4.2101,4.2101,4.2156,4.2105,4.2105,4.2105,4.2105,0,4.2043,4.2059,4.2054,4.2065,4.2084,4.2076,4.2094,4.2094,4.2096,4.2106,4.2094,4.2104,4.2094,4.2103,4.2097,4.2114,4.2115,4.2113,4.2111,4.2114,4.2114,4.2115,4.2113,4.2106,4.2106,4.2106,4.2105,0,4.2081,4.2078,4.2097,4.2099,4.21,4.2113,4.2114,4.2124,4.2122,4.2135,4.2138,4.2134,4.2144,4.2137,4.2147,4.2143,4.2165,4.216,4.2165,4.2163,4.2181,4.2179,4.2238,4.2245,4.219,4.2191,4.2191,0,4.2104,4.2117,4.2121,4.2128,4.2131,4.2142,4.2148,4.2142,4.2148,4.2154,4.2163,4.2173,4.218,4.2197,4.2194,4.2202,4.2197,4.2217,4.2197,4.22,4.2197,4.2196,4.2197,4.222,4.2221,4.2221,4.2222,0,4.2146,4.2145,4.2155,4.2165,4.2173,4.218,4.2186,4.2192,4.2186,4.2194,4.2206,4.2212,4.2223,4.2233,4.224,4.224,4.223,4.2229,4.2233,4.2235,4.2237,4.2237,4.2175,4.2227,4.2226,4.2226,4.2226,4.2225,4.2177,4.2188,4.2194,4.2206,4.2211,4.2217,4.2227,4.2228,4.2237,4.2247,4.2243,4.2256,4.226,4.2269,4.2271,4.2281,4.2272,4.2279,4.228,4.2282,4.2284,4.2237,4.2282,4.2282,4.2282,4.2282,4.2281,0,4.2218,4.2222,4.2233,4.2244,4.2253,4.2246,4.2253,4.2261,4.2273,4.2278,4.2287,4.23,4.231,4.231,4.2319,4.2327,4.2323,4.233,4.2328,4.2329,4.2291,4.2286,4.2333,4.2333,4.2333,4.2333,4.2333,4.2333,4.2241,4.226,4.226,4.2282,4.2286,4.23,4.2305,4.2311,4.2315,4.2332,4.2341,4.2341,4.2344,4.2354,4.2363,4.2362,4.2366,4.2374,4.2372,4.2336,4.2331,4.2326,4.2322,4.2375,4.2375,4.2409,4.2409,4.241]}]]